[[{"header":{"parameterUnit":"m.s-1","parameterCategory":2,"la1":30.2991,"la2":30.254,"lo1":-89.0895,"lo2":-89.0444,"dy":0.0017,"dx":0.0017,"nx":28,"ny":28,"refTime":"2023-08-27T21:00:00:Z","depth":"0","parameterNumber":2,"parameterNumberName":"U-component_of_CURRENTS"},"data":[0,0,0,0,0,0,0,0,0,0,0,0,0,0,0,0,0,0,0,0,0,0,0,0,0,0,0,0,0,0,0,0,0,0,0,0,0,0,0,0,0,0,0,0,0,0,0,0,0,0,0,0,0,0,0,0,0,0,-0.2309,-0.231,0,-0.2337,-0.2337,-0.2337,-0.2323,-0.2323,-0.2322,-0.2322,-0.234,-0.2341,-0.2342,0,0,0,0,0,0,0,0,0,0,0,0,0,-0.2238,-0.224,-0.2309,-0.231,-0.231,-0.2337,-0.2337,-0.2337,-0.2323,-0.2323,-0.2322,-0.2321,-0.2339,-0.2341,-0.2342,0,0,0,0,0,0,0,0,0,0,0,0,0,-0.2267,-0.224,-0.2309,-0.2307,-0.2308,-0.2337,-0.2337,-0.2337,-0.2323,-0.2323,-0.2322,-0.2321,-0.2339,-0.234,-0.2342,-0.2369,0,0,-0.2347,-0.2347,0,0,0,0,0,0,0,0,-0.2265,-0.2269,-0.2307,-0.2308,-0.2308,-0.2327,-0.2319,-0.2348,-0.2324,-0.2316,-0.2321,-0.232,-0.2336,-0.2338,-0.2343,-0.237,-0.2371,-0.2347,-0.2348,-0.2348,-0.2349,0,0,0,0,0,0,0,-0.2263,-0.2268,-0.2318,-0.2308,-0.2308,-0.2304,-0.2307,-0.2324,-0.2329,-0.2316,-0.2316,-0.2322,-0.2336,-0.2342,-0.2343,-0.2371,-0.2347,-0.2348,-0.2349,-0.235,-0.2387,-0.2387,0,0,0,0,0,0,-0.2264,-0.2266,-0.2318,-0.2319,-0.2286,-0.2306,-0.2309,-0.2321,-0.2329,-0.233,-0.2323,-0.2321,-0.2339,-0.2342,-0.2344,-0.2367,-0.2348,-0.235,-0.2351,-0.2387,-0.2387,-0.2387,0,0,0,0,0,0,-0.2263,-0.2269,-0.2317,-0.2294,-0.23,-0.2308,-0.2321,-0.2322,-0.2325,-0.2334,-0.2334,-0.2325,-0.2339,-0.2342,-0.2353,-0.2368,-0.2351,-0.2352,-0.2387,-0.2387,-0.2387,-0.242,0,0,0,0,0,0,-0.2261,-0.2268,-0.2274,-0.2295,-0.2301,-0.2338,-0.2322,-0.2323,-0.233,-0.2329,-0.2337,-0.2337,-0.2338,-0.235,-0.2354,-0.237,-0.2353,-0.2387,-0.2387,-0.2387,-0.2418,-0.2421,-0.2423,0,0,0,0,0,-0.2258,-0.2273,-0.2274,-0.228,-0.231,-0.2339,-0.2342,-0.2343,-0.2331,-0.234,-0.2336,-0.2337,-0.2353,-0.2352,-0.2356,-0.2373,-0.2387,-0.2387,-0.2387,-0.2418,-0.242,-0.2423,0,0,0,0,0,0,-0.2245,-0.2274,-0.2275,-0.2297,-0.2317,-0.2337,-0.2342,-0.2345,-0.235,-0.2342,-0.2344,-0.2346,-0.236,-0.2359,-0.2357,-0.2381,-0.2368,-0.2369,-0.239,-0.2393,-0.2395,-0.2395,-0.2355,0,0,0,0,0,-0.2246,-0.2261,-0.2289,-0.2304,-0.2314,-0.2327,-0.2337,-0.2342,-0.2352,-0.2352,-0.2357,-0.2357,-0.2366,-0.2372,-0.2379,-0.2399,-0.2385,-0.2408,-0.241,-0.2412,-0.2413,-0.241,-0.2413,-0.2388,-0.2388,-0.2388,0,0,-0.2243,-0.226,-0.2268,-0.2302,-0.2312,-0.2337,-0.233,-0.2348,-0.2365,-0.2355,-0.2369,-0.2369,-0.2372,-0.2389,-0.2395,-0.239,-0.2408,-0.2413,-0.2414,-0.2414,-0.2411,-0.2413,-0.2416,-0.2388,-0.2388,-0.2388,0,0,-0.2248,-0.2262,-0.2277,-0.2299,-0.2323,-0.2339,-0.2346,-0.2368,-0.2372,-0.2392,-0.2384,-0.2388,-0.2406,-0.2409,-0.2414,-0.2432,-0.242,-0.2434,-0.245,-0.2448,-0.245,-0.2452,-0.2423,-0.2423,-0.2436,-0.2436,-0.2436,0,-0.2243,-0.2267,-0.2285,-0.2309,-0.2327,-0.2341,-0.2366,-0.2381,-0.2402,-0.2409,-0.2398,-0.2413,-0.2416,-0.2436,-0.2438,-0.244,-0.2426,-0.2444,-0.2452,-0.2453,-0.2454,-0.2425,-0.2424,-0.2438,-0.2437,-0.2437,-0.2437,0,-0.2261,-0.2282,-0.2292,-0.2328,-0.2354,-0.2375,-0.2406,-0.2422,-0.2426,-0.2438,-0.2452,-0.245,-0.2458,-0.246,-0.2457,-0.2472,-0.2454,-0.2456,-0.2448,-0.2459,-0.2427,-0.2425,-0.244,-0.2439,-0.2439,-0.2438,0,0,-0.2235,-0.2295,-0.2294,-0.2314,-0.2364,-0.2386,-0.2423,-0.2458,-0.2471,-0.2483,-0.2498,-0.2507,-0.2499,-0.2502,-0.2498,-0.2494,-0.2487,-0.248,-0.2479,-0.2456,-0.2462,-0.2353,-0.234,-0.2494,-0.2494,-0.2494,-0.2431,0,-0.2236,-0.228,-0.2315,-0.2354,-0.2379,-0.2416,-0.2449,-0.2483,-0.2501,-0.2518,-0.2518,-0.2526,-0.2519,-0.2516,-0.2517,-0.2501,-0.2485,-0.2502,-0.245,-0.2448,-0.2354,-0.2336,-0.2239,-0.2166,-0.2429,-0.2428,-0.2428,0,-0.2231,-0.2264,-0.2304,-0.2365,-0.2379,-0.2406,-0.2455,-0.2488,-0.2526,-0.2538,-0.2554,-0.2553,-0.2558,-0.2541,-0.252,-0.2532,-0.2497,-0.2475,-0.2472,-0.2359,-0.2336,-0.2199,-0.2152,-0.2128,-0.2425,-0.2425,-0.2425,0,-0.2185,-0.225,-0.228,-0.2301,-0.2375,-0.2395,-0.2432,-0.2482,-0.2502,-0.2543,-0.255,-0.257,-0.2556,-0.2544,-0.2497,-0.2514,-0.2451,-0.2471,-0.2334,-0.2326,-0.2224,-0.2206,-0.2151,-0.2439,-0.244,-0.244,-0.244,0,-0.2165,-0.2182,-0.2256,-0.2268,-0.2294,-0.2364,-0.2388,-0.2431,-0.2481,-0.249,-0.2544,-0.2531,-0.2555,-0.2523,-0.2497,-0.2393,-0.2449,-0.2323,-0.23,-0.2229,-0.2213,-0.2172,-0.2197,-0.2437,-0.2438,-0.2438,-0.2439,0,-0.2095,-0.2149,-0.2177,-0.225,-0.2268,-0.2281,-0.2346,-0.2364,-0.2427,-0.244,-0.2449,-0.2493,-0.245,-0.2444,-0.2403,-0.2359,-0.224,-0.2238,-0.2135,-0.2101,-0.1951,-0.1982,-0.1895,-0.1843,-0.2088,-0.2085,-0.2083,0,-0.206,-0.2068,-0.2132,-0.2142,-0.2166,-0.2201,-0.2222,-0.2311,-0.2332,-0.239,-0.2382,-0.2368,-0.2326,-0.2233,-0.2159,-0.2078,-0.2096,-0.1937,-0.1949,-0.1909,-0.193,-0.196,-0.1927,-0.1829,-0.1825,-0.1821,-0.1818,0,-0.1976,-0.1995,-0.2017,-0.204,-0.2061,-0.2085,-0.2124,-0.2137,-0.2228,-0.224,-0.2231,-0.2207,-0.2127,-0.1995,-0.1894,-0.1842,-0.1883,-0.1855,-0.1854,-0.1742,-0.1734,-0.1683,-0.19,-0.1785,-0.1789,-0.1791,-0.1793,-0.1794,-0.1889,-0.1882,-0.1908,-0.1916,-0.1942,-0.1942,-0.1915,-0.197,-0.1972,-0.196,-0.2022,-0.1949,-0.1876,-0.1715,-0.1655,-0.1523,-0.1611,-0.1492,-0.1538,-0.1576,-0.1507,-0.1625,-0.1462,-0.1464,-0.1465,-0.1466,-0.1467,0,-0.1777,-0.178,-0.1784,-0.1786,-0.1755,-0.1812,-0.1822,-0.1775,-0.1725,-0.1751,-0.1716,-0.1636,-0.1495,-0.1452,-0.1324,-0.1246,-0.1245,-0.1228,-0.1279,-0.1264,-0.139,-0.1358,-0.1115,-0.1115,-0.1115,-0.1115,-0.1115,-0.1115,-0.1717,-0.1678,-0.1681,-0.1586,-0.1583,-0.1496,-0.1468,-0.1426,-0.1416,-0.1335,-0.131,-0.1326,-0.1303,-0.1319,-0.1196,-0.113,-0.1129,-0.1073,-0.1118,-0.1246,-0.1276,-0.1304,-0.1279,-0.1023,-0.1023,-0.0941,-0.0941,-0.0941]},{"header":{"parameterUnit":"m.s-1","parameterCategory":2,"la1":30.2991,"la2":30.254,"lo1":-89.0895,"lo2":-89.0444,"dy":0.0017,"dx":0.0017,"nx":28,"ny":28,"refTime":"2023-08-27T21:00:00:Z","depth":"0","parameterNumber":3,"parameterNumberName":"V-component_of_CURRENTS"},"data":[0,0,0,0,0,0,0,0,0,0,0,0,0,0,0,0,0,0,0,0,0,0,0,0,0,0,0,0,0,0,0,0,0,0,0,0,0,0,0,0,0,0,0,0,0,0,0,0,0,0,0,0,0,0,0,0,0,0,-0.0372,-0.0371,0,-0.0308,-0.0307,-0.0306,-0.0258,-0.0257,-0.0257,-0.0256,-0.0159,-0.0157,-0.0155,0,0,0,0,0,0,0,0,0,0,0,0,0,-0.0418,-0.0418,-0.0372,-0.0371,-0.037,-0.0308,-0.0307,-0.0306,-0.0258,-0.0257,-0.0257,-0.0256,-0.016,-0.0157,-0.0155,0,0,0,0,0,0,0,0,0,0,0,0,0,-0.038,-0.0417,-0.0372,-0.0339,-0.0335,-0.0308,-0.0307,-0.0306,-0.0258,-0.0257,-0.0256,-0.0256,-0.0161,-0.0157,-0.0154,-0.0147,0,0,-0.0144,-0.0143,0,0,0,0,0,0,0,0,-0.0383,-0.0379,-0.0344,-0.0341,-0.0337,-0.029,-0.0288,-0.0251,-0.0258,-0.0287,-0.0256,-0.0256,-0.02,-0.0194,-0.0183,-0.0142,-0.0138,-0.0144,-0.0142,-0.014,-0.014,0,0,0,0,0,0,0,-0.0385,-0.0381,-0.0346,-0.0343,-0.0339,-0.0315,-0.031,-0.0281,-0.0247,-0.0284,-0.0281,-0.0274,-0.0198,-0.0187,-0.0181,-0.0137,-0.0144,-0.0141,-0.0139,-0.0138,-0.0085,-0.0085,0,0,0,0,0,0,-0.0396,-0.0384,-0.0348,-0.0344,-0.0359,-0.0315,-0.0309,-0.0306,-0.0248,-0.0239,-0.0275,-0.0272,-0.0193,-0.0185,-0.0177,-0.0174,-0.014,-0.0137,-0.0136,-0.0084,-0.0085,-0.0085,0,0,0,0,0,0,-0.0397,-0.0394,-0.0351,-0.0362,-0.0355,-0.0315,-0.0312,-0.0305,-0.0292,-0.0241,-0.0231,-0.027,-0.0192,-0.0182,-0.0157,-0.0169,-0.0136,-0.0133,-0.0083,-0.0084,-0.0085,-0.0162,0,0,0,0,0,0,-0.0399,-0.0395,-0.0398,-0.0363,-0.0355,-0.0342,-0.0313,-0.0304,-0.0289,-0.0285,-0.0234,-0.0224,-0.0191,-0.0163,-0.0154,-0.0164,-0.013,-0.0083,-0.0084,-0.0085,-0.0159,-0.0166,-0.0171,0,0,0,0,0,-0.0401,-0.0414,-0.0399,-0.0395,-0.0361,-0.0343,-0.0337,-0.0305,-0.029,-0.029,-0.0257,-0.0226,-0.0163,-0.0161,-0.0151,-0.016,-0.0082,-0.0083,-0.0085,-0.0156,-0.0164,-0.0171,0,0,0,0,0,0,-0.0436,-0.0409,-0.0392,-0.0396,-0.0372,-0.0334,-0.0333,-0.0311,-0.0285,-0.028,-0.0232,-0.022,-0.0204,-0.0172,-0.017,-0.0148,-0.0118,-0.0117,-0.0176,-0.0183,-0.0189,-0.0207,-0.0128,0,0,0,0,0,-0.0446,-0.0447,-0.0415,-0.0416,-0.0408,-0.0371,-0.036,-0.0339,-0.031,-0.0298,-0.0263,-0.0227,-0.0202,-0.0185,-0.0156,-0.0143,-0.0101,-0.0142,-0.0149,-0.0154,-0.0162,-0.0123,-0.0126,-0.0089,-0.0089,-0.0089,0,0,-0.0459,-0.0444,-0.0444,-0.0423,-0.0402,-0.0404,-0.0363,-0.0351,-0.0354,-0.0292,-0.0285,-0.0248,-0.0204,-0.0192,-0.0181,-0.0165,-0.0137,-0.0156,-0.0161,-0.0166,-0.0124,-0.0128,-0.0131,-0.009,-0.009,-0.009,0,0,-0.0493,-0.0473,-0.0488,-0.0476,-0.0452,-0.0429,-0.043,-0.0396,-0.0381,-0.0366,-0.0327,-0.0301,-0.0257,-0.0232,-0.0213,-0.0236,-0.0173,-0.0223,-0.0267,-0.0228,-0.0231,-0.0233,-0.0164,-0.016,-0.0224,-0.0225,-0.0225,0,-0.0511,-0.0525,-0.049,-0.0503,-0.0502,-0.0447,-0.0467,-0.0445,-0.0408,-0.04,-0.0374,-0.0317,-0.0279,-0.0267,-0.0275,-0.0251,-0.0207,-0.0244,-0.0237,-0.0238,-0.0239,-0.0168,-0.0162,-0.0228,-0.0228,-0.0228,-0.0227,0,-0.0559,-0.0569,-0.0577,-0.0577,-0.057,-0.0576,-0.0543,-0.0532,-0.0502,-0.0474,-0.045,-0.0396,-0.0362,-0.0345,-0.0316,-0.0307,-0.0265,-0.0251,-0.0221,-0.0247,-0.017,-0.0163,-0.0234,-0.0233,-0.0231,-0.023,0,0,-0.0603,-0.0612,-0.0615,-0.063,-0.0612,-0.0612,-0.0615,-0.0602,-0.0597,-0.0554,-0.0544,-0.0503,-0.0462,-0.0439,-0.0394,-0.0359,-0.0318,-0.0313,-0.0309,-0.0249,-0.0207,-0.0147,-0.0132,-0.0303,-0.0303,-0.0303,-0.0144,0,-0.0651,-0.0701,-0.0688,-0.0728,-0.0749,-0.0711,-0.0714,-0.0691,-0.0653,-0.0625,-0.0567,-0.0534,-0.0501,-0.0475,-0.0443,-0.0343,-0.0304,-0.0361,-0.0187,-0.0181,-0.0129,-0.0124,-0.0096,0.0049,-0.0136,-0.0135,-0.0134,0,-0.0706,-0.0731,-0.0787,-0.0804,-0.0808,-0.0819,-0.081,-0.0807,-0.0752,-0.0718,-0.0678,-0.0615,-0.0557,-0.0522,-0.0385,-0.042,-0.0331,-0.0253,-0.0245,-0.0161,-0.0108,0.0042,0.0071,0.0179,-0.0121,-0.0122,-0.0123,0,-0.076,-0.08,-0.0848,-0.0856,-0.0864,-0.0877,-0.0874,-0.0836,-0.0824,-0.0771,-0.0735,-0.0665,-0.0596,-0.0504,-0.0343,-0.0362,-0.0171,-0.0173,-0.0036,-0.0029,0.0043,0.0055,0.019,-0.0093,-0.0093,-0.0094,-0.0094,0,-0.0821,-0.0857,-0.0877,-0.0903,-0.0947,-0.0931,-0.095,-0.0932,-0.0886,-0.0856,-0.0786,-0.0726,-0.0588,-0.0457,-0.0345,-0.0148,-0.0169,-0.0037,0.001,0.002,0.0028,0.0164,0.02,-0.0088,-0.0089,-0.009,-0.0091,0,-0.0872,-0.0887,-0.0941,-0.0966,-0.0975,-0.1005,-0.1,-0.1,-0.095,-0.0904,-0.0883,-0.0746,-0.0567,-0.0412,-0.0213,-0.012,0.0126,0.0109,0.013,0.0175,0.0378,0.0408,0.0597,0.0677,0.0279,0.0281,0.0283,0,-0.0903,-0.0938,-0.0989,-0.1019,-0.1033,-0.1064,-0.1073,-0.1041,-0.102,-0.0904,-0.087,-0.0692,-0.0542,-0.0222,-0.0027,0.0196,0.0258,0.0341,0.0291,0.0403,0.0471,0.0484,0.0537,0.0374,0.0376,0.0379,0.038,0,-0.0955,-0.0971,-0.1012,-0.1075,-0.1105,-0.1134,-0.1134,-0.1121,-0.1052,-0.0978,-0.0827,-0.0697,-0.0379,-0.0095,0.0187,0.0303,0.0426,0.039,0.0496,0.0548,0.0581,0.0676,0.0277,0.0399,0.0397,0.0396,0.0395,0.0394,-0.0979,-0.1023,-0.1071,-0.1126,-0.116,-0.1178,-0.1176,-0.1131,-0.1069,-0.0914,-0.0796,-0.0548,-0.0173,0.0237,0.0382,0.0661,0.061,0.0716,0.0747,0.0752,0.0812,0.0465,0.0636,0.0635,0.0635,0.0635,0.0634,0,-0.1008,-0.1055,-0.1115,-0.1171,-0.12,-0.1211,-0.1191,-0.1141,-0.1032,-0.0859,-0.0681,-0.0225,0.0139,0.0466,0.0855,0.1001,0.102,0.1058,0.1071,0.1111,0.0806,0.079,0.1014,0.1014,0.1014,0.1014,0.1014,0.1014,-0.1026,-0.1089,-0.1122,-0.118,-0.1211,-0.1211,-0.1187,-0.1082,-0.094,-0.0618,-0.0331,-0.0106,0.0355,0.0932,0.1276,0.1297,0.1419,0.1401,0.1476,0.1244,0.1213,0.1184,0.1178,0.1479,0.148,0.1766,0.1769,0.1771]}],[{"header":{"parameterUnit":"m.s-1","parameterCategory":2,"la1":30.2991,"la2":30.254,"lo1":-89.0895,"lo2":-89.0444,"dy":0.0017,"dx":0.0017,"nx":28,"ny":28,"refTime":"2023-08-27T21:00:00:Z","depth":"2","parameterNumber":2,"parameterNumberName":"U-component_of_CURRENTS"},"data":[0,0,0,0,0,0,0,0,0,0,0,0,0,0,0,0,0,0,0,0,0,0,0,0,0,0,0,0,0,0,0,0,0,0,0,0,0,0,0,0,0,0,0,0,0,0,0,0,0,0,0,0,0,0,0,0,0,0,-0.2062,-0.2062,0,-0.2092,-0.2092,-0.2092,-0.2085,-0.2084,-0.2084,-0.2084,-0.211,-0.2111,-0.2112,0,0,0,0,0,0,0,0,0,0,0,0,0,-0.1998,-0.1999,-0.2062,-0.2062,-0.2063,-0.2092,-0.2092,-0.2092,-0.2085,-0.2084,-0.2084,-0.2083,-0.2109,-0.2111,-0.2112,0,0,0,0,0,0,0,0,0,0,0,0,0,-0.2025,-0.2,-0.2062,-0.2064,-0.2064,-0.2092,-0.2092,-0.2092,-0.2085,-0.2084,-0.2084,-0.2083,-0.2109,-0.211,-0.2112,-0.2136,0,0,-0.2117,-0.2118,0,0,0,0,0,0,0,0,-0.2024,-0.2027,-0.2063,-0.2064,-0.2065,-0.2085,-0.2079,-0.2107,-0.2085,-0.2076,-0.2084,-0.2083,-0.2103,-0.2105,-0.211,-0.2137,-0.2138,-0.2117,-0.2118,-0.2119,-0.2119,0,0,0,0,0,0,0,-0.2022,-0.2026,-0.2072,-0.2064,-0.2065,-0.2063,-0.2066,-0.2084,-0.2091,-0.2077,-0.2076,-0.2082,-0.2103,-0.2108,-0.211,-0.2138,-0.2117,-0.2119,-0.212,-0.212,-0.2164,-0.2165,0,0,0,0,0,0,-0.2022,-0.2025,-0.2071,-0.2073,-0.2044,-0.2065,-0.2068,-0.2078,-0.2091,-0.2093,-0.2083,-0.2082,-0.2106,-0.2108,-0.2111,-0.2137,-0.2119,-0.2121,-0.2121,-0.2164,-0.2164,-0.2165,0,0,0,0,0,0,-0.2021,-0.2026,-0.207,-0.205,-0.2056,-0.2067,-0.2078,-0.2079,-0.2085,-0.2096,-0.2097,-0.2088,-0.2105,-0.2109,-0.2123,-0.2137,-0.2121,-0.2123,-0.2164,-0.2164,-0.2165,-0.2189,0,0,0,0,0,0,-0.2019,-0.2026,-0.2031,-0.2051,-0.2057,-0.2091,-0.2079,-0.208,-0.2091,-0.209,-0.2102,-0.2103,-0.2105,-0.2121,-0.2125,-0.2139,-0.2124,-0.2164,-0.2164,-0.2164,-0.2188,-0.219,-0.2192,0,0,0,0,0,-0.2017,-0.203,-0.2032,-0.2037,-0.2065,-0.2092,-0.2095,-0.2099,-0.2092,-0.2101,-0.2101,-0.2103,-0.2125,-0.2122,-0.2127,-0.2143,-0.2164,-0.2164,-0.2164,-0.2187,-0.219,-0.2192,0,0,0,0,0,0,-0.2004,-0.2031,-0.2033,-0.2053,-0.2073,-0.2091,-0.2098,-0.2103,-0.2111,-0.2106,-0.211,-0.2112,-0.213,-0.2131,-0.2127,-0.2154,-0.2143,-0.2145,-0.2159,-0.2162,-0.2164,-0.2158,-0.2125,0,0,0,0,0,-0.2006,-0.202,-0.2046,-0.206,-0.207,-0.2084,-0.2094,-0.2101,-0.2112,-0.2115,-0.2122,-0.2126,-0.2136,-0.2144,-0.2153,-0.2173,-0.2158,-0.2183,-0.2185,-0.2187,-0.2184,-0.2174,-0.2174,-0.2166,-0.2166,-0.2166,0,0,-0.2004,-0.202,-0.2028,-0.2058,-0.2069,-0.2092,-0.2088,-0.2107,-0.2123,-0.2117,-0.2135,-0.2137,-0.2142,-0.216,-0.2168,-0.2163,-0.218,-0.2187,-0.2189,-0.2185,-0.2174,-0.2175,-0.2176,-0.2166,-0.2166,-0.2166,0,0,-0.201,-0.2023,-0.2037,-0.2058,-0.2083,-0.2096,-0.2104,-0.2127,-0.2133,-0.2155,-0.2149,-0.2154,-0.2178,-0.2178,-0.2182,-0.22,-0.2191,-0.2208,-0.2217,-0.2208,-0.2208,-0.2209,-0.2187,-0.2185,-0.2209,-0.2209,-0.2209,0,-0.2006,-0.2028,-0.2046,-0.2068,-0.2083,-0.21,-0.2121,-0.2136,-0.216,-0.2166,-0.2162,-0.218,-0.2184,-0.2198,-0.2201,-0.2206,-0.2194,-0.221,-0.221,-0.221,-0.221,-0.2188,-0.2185,-0.2211,-0.221,-0.221,-0.221,0,-0.2024,-0.2043,-0.2053,-0.2086,-0.2108,-0.2128,-0.2156,-0.2173,-0.2181,-0.2193,-0.2208,-0.2208,-0.2215,-0.222,-0.2219,-0.2224,-0.2214,-0.2214,-0.2205,-0.2213,-0.2188,-0.2185,-0.2212,-0.2212,-0.2212,-0.2211,0,0,-0.2,-0.2056,-0.2055,-0.2074,-0.2117,-0.2136,-0.2168,-0.2197,-0.221,-0.2227,-0.2239,-0.2248,-0.2243,-0.2246,-0.2243,-0.2235,-0.2223,-0.2227,-0.2226,-0.2206,-0.2194,-0.2101,-0.2089,-0.2227,-0.2227,-0.2227,-0.2175,0,-0.2002,-0.2043,-0.2072,-0.2106,-0.2128,-0.216,-0.2189,-0.2218,-0.2236,-0.2255,-0.2253,-0.2264,-0.2256,-0.2258,-0.225,-0.2237,-0.2218,-0.2236,-0.2189,-0.2187,-0.2104,-0.2083,-0.1942,-0.1877,-0.2173,-0.2172,-0.2172,0,-0.1998,-0.2028,-0.2063,-0.2116,-0.2128,-0.2153,-0.2192,-0.2222,-0.2256,-0.227,-0.228,-0.2284,-0.2282,-0.2269,-0.224,-0.2255,-0.2222,-0.2202,-0.22,-0.2102,-0.2088,-0.1918,-0.1861,-0.2167,-0.2167,-0.2167,-0.2168,0,-0.1959,-0.2016,-0.2041,-0.206,-0.2126,-0.2142,-0.2174,-0.2218,-0.2237,-0.2273,-0.2284,-0.2293,-0.2285,-0.2263,-0.2221,-0.2236,-0.2175,-0.219,-0.207,-0.2064,-0.1925,-0.1906,-0.215,-0.2151,-0.2151,-0.2151,-0.2151,0,-0.1941,-0.1957,-0.2024,-0.2036,-0.2059,-0.212,-0.2142,-0.2178,-0.2226,-0.2233,-0.228,-0.2268,-0.2282,-0.2252,-0.2221,-0.2124,-0.2171,-0.2057,-0.2039,-0.1928,-0.1911,-0.2152,-0.2153,-0.2149,-0.2149,-0.215,-0.215,0,-0.1882,-0.1932,-0.1956,-0.2022,-0.2038,-0.205,-0.211,-0.2129,-0.2187,-0.2198,-0.2208,-0.2244,-0.2201,-0.2193,-0.2146,-0.21,-0.2036,-0.1984,-0.1846,-0.1811,-0.1935,-0.1938,-0.1857,-0.1854,-0.185,-0.1848,-0.1845,0,-0.1853,-0.1862,-0.1919,-0.1929,-0.1952,-0.1985,-0.2006,-0.2085,-0.2105,-0.2157,-0.2149,-0.2139,-0.2091,-0.2001,-0.1922,-0.1841,-0.1921,-0.1666,-0.1661,-0.1911,-0.1903,-0.1911,-0.1918,-0.1492,-0.1487,-0.1483,-0.1479,0,-0.178,-0.1799,-0.1819,-0.1841,-0.1862,-0.1881,-0.192,-0.1931,-0.2011,-0.2022,-0.2006,-0.1977,-0.19,-0.1741,-0.1649,-0.1589,-0.1676,-0.1578,-0.1865,-0.1587,-0.1561,-0.1555,-0.1575,-0.1443,-0.1447,-0.1449,-0.1451,-0.1453,-0.1706,-0.17,-0.1724,-0.173,-0.1756,-0.1751,-0.1721,-0.1769,-0.1764,-0.174,-0.1798,-0.1699,-0.1678,-0.1445,-0.1353,-0.1287,-0.1408,-0.1358,-0.1372,-0.1391,-0.1357,-0.1327,-0.1158,-0.1159,-0.1161,-0.1163,-0.1164,0,-0.1606,-0.1608,-0.1613,-0.161,-0.1582,-0.1634,-0.1637,-0.1582,-0.152,-0.1525,-0.1479,-0.13,-0.1182,-0.1169,-0.1003,-0.0967,-0.0985,-0.0935,-0.0966,-0.1001,-0.1033,-0.0984,-0.0684,-0.0682,-0.0681,-0.068,0,0,-0.1553,-0.1515,-0.1515,-0.1423,-0.142,-0.1332,-0.1299,-0.124,-0.1212,-0.1108,-0.1051,-0.1105,-0.113,-0.0906,-0.0852,-0.074,-0.0868,-0.0702,-0.1086,-0.1158,-0.1189,-0.1272,-0.1234,0,0,0,0,0]},{"header":{"parameterUnit":"m.s-1","parameterCategory":2,"la1":30.2991,"la2":30.254,"lo1":-89.0895,"lo2":-89.0444,"dy":0.0017,"dx":0.0017,"nx":28,"ny":28,"refTime":"2023-08-27T21:00:00:Z","depth":"2","parameterNumber":3,"parameterNumberName":"V-component_of_CURRENTS"},"data":[0,0,0,0,0,0,0,0,0,0,0,0,0,0,0,0,0,0,0,0,0,0,0,0,0,0,0,0,0,0,0,0,0,0,0,0,0,0,0,0,0,0,0,0,0,0,0,0,0,0,0,0,0,0,0,0,0,0,-0.0267,-0.0267,0,-0.0212,-0.0212,-0.0211,-0.0167,-0.0167,-0.0167,-0.0166,-0.0081,-0.008,-0.0078,0,0,0,0,0,0,0,0,0,0,0,0,0,-0.0303,-0.0303,-0.0267,-0.0267,-0.0266,-0.0213,-0.0212,-0.0211,-0.0167,-0.0167,-0.0166,-0.0166,-0.0082,-0.008,-0.0078,0,0,0,0,0,0,0,0,0,0,0,0,0,-0.0272,-0.0302,-0.0267,-0.0238,-0.0235,-0.0213,-0.0212,-0.0211,-0.0168,-0.0167,-0.0166,-0.0166,-0.0083,-0.008,-0.0077,-0.0073,0,0,-0.0069,-0.0068,0,0,0,0,0,0,0,0,-0.0273,-0.027,-0.0243,-0.024,-0.0236,-0.0196,-0.0193,-0.0163,-0.0168,-0.0193,-0.0166,-0.0165,-0.0118,-0.0112,-0.0103,-0.0069,-0.0065,-0.0069,-0.0067,-0.0066,-0.0065,0,0,0,0,0,0,0,-0.0276,-0.0272,-0.0245,-0.0242,-0.0238,-0.0217,-0.0212,-0.0187,-0.0159,-0.0191,-0.0187,-0.0182,-0.0115,-0.0106,-0.0101,-0.0064,-0.0069,-0.0066,-0.0064,-0.0063,-0.0017,-0.0018,0,0,0,0,0,0,-0.0285,-0.0275,-0.0247,-0.0244,-0.0254,-0.0217,-0.0211,-0.021,-0.016,-0.0152,-0.0182,-0.018,-0.0111,-0.0104,-0.0098,-0.0086,-0.0066,-0.0063,-0.0061,-0.0017,-0.0018,-0.0018,0,0,0,0,0,0,-0.0286,-0.0283,-0.0249,-0.0258,-0.0252,-0.0217,-0.0215,-0.0209,-0.0198,-0.0154,-0.0145,-0.0178,-0.011,-0.0102,-0.0081,-0.0083,-0.0062,-0.0059,-0.0016,-0.0017,-0.0018,-0.0066,0,0,0,0,0,0,-0.0288,-0.0284,-0.0289,-0.0259,-0.0252,-0.0242,-0.0216,-0.0208,-0.0196,-0.0192,-0.0147,-0.0139,-0.0109,-0.0085,-0.0078,-0.0079,-0.0057,-0.0016,-0.0017,-0.0018,-0.0064,-0.0068,-0.0072,0,0,0,0,0,-0.0289,-0.0302,-0.0289,-0.0286,-0.0258,-0.0242,-0.0237,-0.0209,-0.0197,-0.0197,-0.0168,-0.014,-0.0085,-0.0083,-0.0075,-0.0075,-0.0015,-0.0016,-0.0017,-0.0062,-0.0067,-0.0072,0,0,0,0,0,0,-0.0321,-0.0298,-0.0283,-0.0288,-0.0268,-0.0235,-0.0234,-0.0215,-0.0192,-0.0189,-0.0146,-0.0136,-0.0119,-0.0093,-0.0092,-0.0065,-0.0046,-0.0045,-0.0082,-0.0087,-0.0091,-0.0095,-0.0055,0,0,0,0,0,-0.033,-0.0331,-0.0304,-0.0306,-0.03,-0.0267,-0.0258,-0.024,-0.0215,-0.0204,-0.0173,-0.0142,-0.0117,-0.01,-0.0076,-0.0061,-0.0024,-0.0056,-0.006,-0.0063,-0.0061,-0.0014,-0.0014,-0.0021,-0.0021,-0.0021,0,0,-0.0342,-0.033,-0.033,-0.0313,-0.0295,-0.0292,-0.026,-0.0251,-0.0246,-0.0199,-0.0186,-0.0157,-0.0118,-0.0102,-0.0091,-0.0079,-0.0042,-0.0065,-0.0068,-0.0063,-0.0015,-0.0014,-0.0013,-0.0022,-0.0022,-0.0022,0,0,-0.037,-0.0357,-0.0368,-0.0356,-0.0335,-0.0314,-0.0314,-0.0285,-0.0269,-0.0254,-0.0219,-0.0192,-0.0157,-0.0125,-0.0105,-0.0117,-0.0069,-0.0113,-0.013,-0.0085,-0.0084,-0.0082,-0.0036,-0.003,-0.0111,-0.0111,-0.0111,0,-0.0386,-0.0395,-0.0369,-0.0377,-0.037,-0.0328,-0.0337,-0.0316,-0.0283,-0.0269,-0.0257,-0.0198,-0.0166,-0.0134,-0.0139,-0.0125,-0.0093,-0.0115,-0.009,-0.0087,-0.0085,-0.0038,-0.003,-0.0113,-0.0113,-0.0113,-0.0113,0,-0.0421,-0.0428,-0.0435,-0.0427,-0.0417,-0.0419,-0.0386,-0.0372,-0.0347,-0.0318,-0.0285,-0.024,-0.0202,-0.0189,-0.0166,-0.0135,-0.0116,-0.0104,-0.0077,-0.0087,-0.0037,-0.0028,-0.0117,-0.0116,-0.0115,-0.0115,0,0,-0.046,-0.046,-0.0463,-0.0469,-0.0445,-0.0442,-0.043,-0.0404,-0.0392,-0.0353,-0.0331,-0.0284,-0.0252,-0.0227,-0.0191,-0.0149,-0.0105,-0.0123,-0.012,-0.0076,-0.0003,0.0027,0.004,-0.0089,-0.0088,-0.0087,0.0025,0,-0.0495,-0.0528,-0.0511,-0.0532,-0.0544,-0.0503,-0.0494,-0.0462,-0.0425,-0.0393,-0.0331,-0.0302,-0.0268,-0.0251,-0.0204,-0.013,-0.0084,-0.0136,0.0,0.0004,0.0033,0.005,0.0027,0.0126,0.0034,0.0036,0.0037,0,-0.0536,-0.0551,-0.0586,-0.0585,-0.0585,-0.0587,-0.0559,-0.0547,-0.0485,-0.0454,-0.0402,-0.0351,-0.0283,-0.0259,-0.0127,-0.0162,-0.0089,-0.0029,-0.0023,0.0029,0.005,0.0122,0.0146,0.0052,0.005,0.0049,0.0048,0,-0.0581,-0.0601,-0.0631,-0.0633,-0.0625,-0.0627,-0.0616,-0.0568,-0.0553,-0.0492,-0.0468,-0.0379,-0.0329,-0.023,-0.0103,-0.0115,0.0048,0.0049,0.0148,0.0151,0.0172,0.0175,0.0141,0.0141,0.0141,0.0141,0.014,0,-0.0626,-0.0649,-0.0658,-0.0676,-0.0704,-0.0677,-0.0686,-0.0658,-0.0612,-0.0588,-0.0508,-0.046,-0.032,-0.0209,-0.0104,0.0057,0.0052,0.0155,0.0185,0.0154,0.0154,0.0118,0.0114,0.0145,0.0144,0.0143,0.0142,0,-0.067,-0.0677,-0.0714,-0.0724,-0.073,-0.0751,-0.0743,-0.0741,-0.0691,-0.0655,-0.0638,-0.0509,-0.0357,-0.0209,-0.0028,0.0062,0.0204,0.0259,0.0215,0.0238,0.0276,0.0268,0.0381,0.0384,0.0385,0.0387,0.0388,0,-0.0696,-0.0721,-0.0759,-0.0787,-0.0796,-0.0819,-0.0829,-0.079,-0.0774,-0.0677,-0.0655,-0.0506,-0.0378,-0.01,0.0082,0.0283,0.027,0.0368,0.0342,0.0285,0.0303,0.0292,0.0282,0.0352,0.0353,0.0354,0.0354,0,-0.0741,-0.0755,-0.0786,-0.0847,-0.0876,-0.0901,-0.0903,-0.0899,-0.0835,-0.0776,-0.0655,-0.0545,-0.0276,-0.0042,0.0207,0.0309,0.0332,0.0389,0.0358,0.0288,0.0265,0.028,0.027,0.0361,0.036,0.0359,0.0359,0.0359,-0.0768,-0.0807,-0.0851,-0.0902,-0.0938,-0.0961,-0.0962,-0.0929,-0.0882,-0.0755,-0.0656,-0.0448,-0.0249,0.0131,0.029,0.043,0.0421,0.0451,0.0446,0.0441,0.0411,0.0391,0.0505,0.0505,0.0505,0.0506,0.0506,0,-0.08,-0.0844,-0.09,-0.0956,-0.099,-0.0997,-0.099,-0.0949,-0.0865,-0.0725,-0.0575,-0.0317,-0.0063,0.0143,0.038,0.0511,0.048,0.0519,0.0455,0.0448,0.0442,0.0409,0.0505,0.0506,0.0506,0.0507,0,0,-0.0821,-0.0882,-0.0912,-0.0977,-0.1011,-0.1021,-0.1005,-0.0915,-0.0797,-0.0625,-0.0457,-0.0269,-0.0024,0.0144,0.0297,0.0418,0.0393,0.0417,0.0403,0.0301,0.0294,0.0389,0.033,0,0,0,0,0]}],[{"header":{"parameterUnit":"m.s-1","parameterCategory":2,"la1":30.2991,"la2":30.254,"lo1":-89.0895,"lo2":-89.0444,"dy":0.0017,"dx":0.0017,"nx":28,"ny":28,"refTime":"2023-08-27T21:00:00:Z","depth":"4","parameterNumber":2,"parameterNumberName":"U-component_of_CURRENTS"},"data":[0,0,0,0,0,0,0,0,0,0,0,0,0,0,0,0,0,0,0,0,0,0,0,0,0,0,0,0,0,0,0,0,0,0,0,0,0,0,0,0,0,0,0,0,0,0,0,0,0,0,0,0,0,0,0,0,0,0,-0.1473,-0.1473,0,-0.1531,-0.1532,-0.1532,-0.1572,-0.1572,-0.1573,-0.1573,-0.1652,-0.1653,-0.1655,0,0,0,0,0,0,0,0,0,0,0,0,0,-0.1395,-0.1396,-0.1473,-0.1474,-0.1474,-0.1531,-0.1532,-0.1532,-0.1572,-0.1572,-0.1573,-0.1573,-0.1651,-0.1653,-0.1655,0,0,0,0,0,0,0,0,0,0,0,0,0,-0.1437,-0.1396,-0.1473,-0.1502,-0.1505,-0.1531,-0.1532,-0.1533,-0.1572,-0.1572,-0.1573,-0.1573,-0.165,-0.1653,-0.1656,-0.166,0,0,-0.1663,-0.1665,0,0,0,0,0,0,0,0,-0.1435,-0.144,-0.1497,-0.15,-0.1503,-0.1546,-0.1533,-0.1577,-0.1572,-0.1545,-0.1573,-0.1574,-0.1618,-0.1624,-0.1632,-0.1664,-0.1667,-0.1664,-0.1665,-0.1666,-0.1667,0,0,0,0,0,0,0,-0.1432,-0.1438,-0.1495,-0.1497,-0.1502,-0.1512,-0.1518,-0.1541,-0.1578,-0.1548,-0.1551,-0.1559,-0.162,-0.1629,-0.1634,-0.1669,-0.1664,-0.1666,-0.1668,-0.1669,-0.1755,-0.1756,0,0,0,0,0,0,-0.1426,-0.1435,-0.1493,-0.1497,-0.1471,-0.1513,-0.152,-0.1531,-0.1577,-0.1585,-0.1558,-0.156,-0.1624,-0.1631,-0.1637,-0.1697,-0.1666,-0.1669,-0.167,-0.1754,-0.1755,-0.1756,0,0,0,0,0,0,-0.1424,-0.1431,-0.1491,-0.1468,-0.1476,-0.1513,-0.1525,-0.1532,-0.1566,-0.1585,-0.1593,-0.1589,-0.1625,-0.1633,-0.1675,-0.1698,-0.167,-0.1672,-0.1753,-0.1754,-0.1755,-0.1784,0,0,0,0,0,0,-0.1422,-0.143,-0.1448,-0.1467,-0.1477,-0.1524,-0.1525,-0.1532,-0.1569,-0.1573,-0.1614,-0.162,-0.1626,-0.1671,-0.1677,-0.1701,-0.1674,-0.1752,-0.1754,-0.1755,-0.1782,-0.1786,-0.1789,0,0,0,0,0,-0.1419,-0.1438,-0.1449,-0.1457,-0.1497,-0.1525,-0.1531,-0.1558,-0.157,-0.159,-0.1614,-0.162,-0.1684,-0.1674,-0.1681,-0.1706,-0.1752,-0.1753,-0.1755,-0.1781,-0.1785,-0.1789,0,0,0,0,0,0,-0.1416,-0.1445,-0.1457,-0.1485,-0.1512,-0.1532,-0.1556,-0.1573,-0.1607,-0.1618,-0.1633,-0.1641,-0.1685,-0.1691,-0.1679,-0.1734,-0.1718,-0.1721,-0.1735,-0.1739,-0.1743,-0.173,-0.1677,0,0,0,0,0,-0.1422,-0.1446,-0.1471,-0.1497,-0.1511,-0.1538,-0.1558,-0.1577,-0.1603,-0.1621,-0.1648,-0.1672,-0.1693,-0.1713,-0.1733,-0.1767,-0.175,-0.1786,-0.179,-0.1793,-0.1787,-0.1774,-0.1775,-0.1761,-0.1761,-0.1761,0,0,-0.1429,-0.1448,-0.1463,-0.1499,-0.1521,-0.1547,-0.1552,-0.1589,-0.1616,-0.1623,-0.1676,-0.1691,-0.1705,-0.174,-0.176,-0.1752,-0.1789,-0.1795,-0.1798,-0.179,-0.1776,-0.1777,-0.1778,-0.1762,-0.1762,-0.1762,0,0,-0.1444,-0.1471,-0.1493,-0.1518,-0.1556,-0.1572,-0.1588,-0.1625,-0.1649,-0.1694,-0.17,-0.1724,-0.1773,-0.1775,-0.1783,-0.1817,-0.1808,-0.1835,-0.1847,-0.1835,-0.1835,-0.1836,-0.1818,-0.1817,-0.1837,-0.1838,-0.1838,0,-0.1455,-0.1482,-0.1505,-0.1532,-0.1554,-0.1585,-0.1613,-0.164,-0.1689,-0.1704,-0.1719,-0.1768,-0.1783,-0.1802,-0.1815,-0.1825,-0.1816,-0.1831,-0.1838,-0.1838,-0.1838,-0.182,-0.1818,-0.1839,-0.1839,-0.1839,-0.1839,0,-0.1476,-0.151,-0.1526,-0.1568,-0.1596,-0.1627,-0.1661,-0.1697,-0.173,-0.175,-0.1791,-0.1806,-0.1828,-0.1841,-0.1843,-0.1853,-0.1847,-0.1843,-0.1825,-0.1841,-0.1821,-0.1819,-0.1841,-0.1841,-0.184,-0.184,0,0,-0.1461,-0.1529,-0.1536,-0.1563,-0.1618,-0.1639,-0.1687,-0.1724,-0.1752,-0.1796,-0.1823,-0.1852,-0.1858,-0.1865,-0.1869,-0.1862,-0.1856,-0.1858,-0.1857,-0.1836,-0.1829,-0.1707,-0.1692,-0.1858,-0.1858,-0.1858,-0.1817,0,-0.1471,-0.1524,-0.1555,-0.1608,-0.1635,-0.1677,-0.1715,-0.1756,-0.1792,-0.1829,-0.1839,-0.187,-0.1868,-0.1884,-0.1876,-0.1868,-0.1851,-0.1867,-0.1821,-0.1819,-0.1704,-0.1685,-0.1857,-0.1815,-0.1814,-0.1814,-0.1813,0,-0.1471,-0.1508,-0.1562,-0.1626,-0.1641,-0.1681,-0.1737,-0.1775,-0.1823,-0.1851,-0.1874,-0.189,-0.1896,-0.189,-0.1865,-0.1881,-0.1854,-0.1838,-0.1836,-0.1706,-0.169,-0.1795,-0.1808,-0.1809,-0.1809,-0.1809,-0.181,0,-0.1432,-0.1506,-0.1549,-0.1573,-0.1652,-0.1686,-0.1727,-0.1783,-0.1811,-0.1864,-0.1887,-0.1899,-0.1909,-0.1885,-0.1854,-0.1867,-0.1813,-0.1824,-0.1682,-0.1674,-0.1787,-0.1787,-0.1786,-0.1786,-0.1786,-0.1786,-0.1786,0,-0.1411,-0.1447,-0.1541,-0.1564,-0.161,-0.1675,-0.1721,-0.1765,-0.1823,-0.1837,-0.1892,-0.1885,-0.1909,-0.1884,-0.1854,-0.1746,-0.1807,-0.1667,-0.1646,-0.1802,-0.1804,-0.1785,-0.1786,-0.1785,-0.1785,-0.1785,-0.1786,0,-0.1352,-0.142,-0.147,-0.1564,-0.1594,-0.1625,-0.1711,-0.1736,-0.1807,-0.1826,-0.1843,-0.188,-0.1836,-0.1834,-0.1789,-0.1725,-0.1652,-0.1597,-0.1756,-0.1748,-0.1527,-0.153,-0.1437,-0.1432,-0.1427,-0.1424,-0.1421,0,-0.1322,-0.1348,-0.1451,-0.1481,-0.1526,-0.1588,-0.1623,-0.1711,-0.173,-0.1788,-0.1776,-0.1778,-0.1778,-0.1612,-0.1629,-0.155,-0.1528,-0.1492,-0.1509,-0.1496,-0.1487,-0.1496,-0.1504,-0.1415,-0.1413,-0.1412,-0.1411,0,-0.1254,-0.1306,-0.1346,-0.1406,-0.1456,-0.1493,-0.155,-0.1552,-0.163,-0.1719,-0.1651,-0.161,-0.1555,-0.1508,-0.1456,-0.1403,-0.152,-0.1448,-0.1457,-0.1473,-0.1469,-0.1466,-0.1478,-0.1397,-0.1399,-0.14,-0.1401,0,-0.1198,-0.1209,-0.127,-0.1304,-0.1364,-0.1363,-0.1412,-0.1419,-0.1445,-0.1524,-0.1486,-0.1484,-0.1526,-0.1427,-0.1374,-0.1317,-0.13,-0.1263,-0.1281,-0.1297,-0.1269,-0.1244,-0.1065,0,0,0,0,0,-0.1132,-0.113,-0.116,-0.1187,-0.124,-0.1264,-0.1341,-0.1393,-0.1474,-0.1387,-0.1434,-0.1371,-0.1288,-0.1288,-0.1196,-0.1307,-0.1308,-0.1195,-0.1278,-0.1317,-0.1334,-0.1312,0,0,0,0,0,0,-0.1087,-0.1114,-0.1118,-0.107,-0.1066,-0.1099,-0.1138,-0.1201,-0.1162,-0.1253,-0.121,-0.1282,-0.1219,-0.1307,-0.1162,-0.1163,-0.1185,-0.121,-0.1206,-0.1308,-0.1323,-0.1336,-0.1319,0,0,0,0,0]},{"header":{"parameterUnit":"m.s-1","parameterCategory":2,"la1":30.2991,"la2":30.254,"lo1":-89.0895,"lo2":-89.0444,"dy":0.0017,"dx":0.0017,"nx":28,"ny":28,"refTime":"2023-08-27T21:00:00:Z","depth":"4","parameterNumber":3,"parameterNumberName":"V-component_of_CURRENTS"},"data":[0,0,0,0,0,0,0,0,0,0,0,0,0,0,0,0,0,0,0,0,0,0,0,0,0,0,0,0,0,0,0,0,0,0,0,0,0,0,0,0,0,0,0,0,0,0,0,0,0,0,0,0,0,0,0,0,0,0,-0.0195,-0.0195,0,-0.0162,-0.0162,-0.0162,-0.0132,-0.0132,-0.0132,-0.0132,-0.0074,-0.0073,-0.0071,0,0,0,0,0,0,0,0,0,0,0,0,0,-0.0209,-0.0209,-0.0195,-0.0195,-0.0194,-0.0162,-0.0162,-0.0161,-0.0133,-0.0132,-0.0132,-0.0131,-0.0074,-0.0073,-0.0071,0,0,0,0,0,0,0,0,0,0,0,0,0,-0.0192,-0.0209,-0.0195,-0.0176,-0.0174,-0.0162,-0.0162,-0.0161,-0.0133,-0.0132,-0.0132,-0.0131,-0.0075,-0.0073,-0.0071,-0.0069,0,0,-0.0065,-0.0064,0,0,0,0,0,0,0,0,-0.0193,-0.0191,-0.0179,-0.0178,-0.0175,-0.0151,-0.0146,-0.0129,-0.0133,-0.0148,-0.0132,-0.0131,-0.0098,-0.0094,-0.0089,-0.0066,-0.0063,-0.0065,-0.0064,-0.0063,-0.0063,0,0,0,0,0,0,0,-0.0194,-0.0192,-0.0182,-0.0179,-0.0177,-0.0161,-0.0159,-0.0142,-0.0125,-0.0147,-0.0145,-0.0142,-0.0097,-0.0091,-0.0087,-0.0063,-0.0065,-0.0063,-0.0062,-0.0062,-0.0032,-0.0032,0,0,0,0,0,0,-0.0201,-0.0194,-0.0183,-0.0181,-0.0184,-0.0162,-0.0159,-0.0159,-0.0126,-0.0121,-0.0142,-0.014,-0.0094,-0.0089,-0.0085,-0.0071,-0.0063,-0.0061,-0.006,-0.0031,-0.0032,-0.0032,0,0,0,0,0,0,-0.0201,-0.02,-0.0184,-0.0186,-0.0183,-0.0162,-0.0163,-0.0159,-0.0154,-0.0123,-0.0117,-0.0141,-0.0094,-0.0088,-0.0075,-0.0069,-0.0061,-0.0059,-0.0031,-0.0031,-0.0032,-0.0049,0,0,0,0,0,0,-0.0202,-0.0201,-0.0207,-0.0187,-0.0184,-0.0181,-0.0163,-0.0159,-0.0153,-0.015,-0.012,-0.0114,-0.0093,-0.0078,-0.0073,-0.0066,-0.0057,-0.0031,-0.0031,-0.0032,-0.0048,-0.005,-0.0052,0,0,0,0,0,-0.0202,-0.0214,-0.0207,-0.0206,-0.0191,-0.0182,-0.0179,-0.0161,-0.0153,-0.0154,-0.0135,-0.0115,-0.0078,-0.0077,-0.0071,-0.0063,-0.003,-0.0031,-0.0032,-0.0047,-0.005,-0.0052,0,0,0,0,0,0,-0.0224,-0.0212,-0.0204,-0.0211,-0.0199,-0.0177,-0.0179,-0.0166,-0.0152,-0.0151,-0.012,-0.0113,-0.01,-0.0084,-0.0084,-0.0058,-0.0051,-0.005,-0.0065,-0.0067,-0.0068,-0.0064,-0.0056,0,0,0,0,0,-0.0232,-0.0236,-0.0219,-0.0225,-0.0222,-0.0201,-0.0196,-0.0184,-0.0168,-0.0161,-0.0141,-0.0119,-0.01,-0.0086,-0.0071,-0.0056,-0.003,-0.0049,-0.0051,-0.0052,-0.0046,-0.0001,0.0003,-0.0035,-0.0035,-0.0035,0,0,-0.0242,-0.0236,-0.0238,-0.023,-0.0219,-0.0216,-0.0197,-0.0194,-0.0186,-0.0158,-0.0146,-0.0129,-0.01,-0.0084,-0.0076,-0.0068,-0.0032,-0.0053,-0.0055,-0.0047,-0.0001,0.0003,0.0007,-0.0035,-0.0035,-0.0035,0,0,-0.0262,-0.0259,-0.0267,-0.026,-0.0248,-0.0233,-0.0234,-0.0216,-0.0204,-0.0193,-0.0169,-0.0145,-0.0125,-0.0092,-0.0075,-0.0078,-0.0048,-0.0081,-0.0078,-0.0034,-0.003,-0.0026,-0.0001,0.0005,-0.0075,-0.0076,-0.0076,0,-0.0274,-0.0281,-0.0268,-0.0272,-0.0267,-0.0243,-0.0246,-0.023,-0.0209,-0.0195,-0.0195,-0.0146,-0.0123,-0.0083,-0.0084,-0.0079,-0.006,-0.007,-0.0035,-0.003,-0.0026,-0.0001,0.0006,-0.0076,-0.0076,-0.0076,-0.0076,0,-0.0294,-0.0301,-0.0306,-0.03,-0.0292,-0.0294,-0.0269,-0.026,-0.0244,-0.0221,-0.019,-0.0157,-0.0124,-0.0114,-0.0099,-0.0057,-0.0057,-0.0046,-0.0026,-0.0023,0.0002,0.001,-0.0078,-0.0077,-0.0077,-0.0077,0,0,-0.0319,-0.0321,-0.0324,-0.0327,-0.0309,-0.0306,-0.0291,-0.0265,-0.0254,-0.0224,-0.0202,-0.0157,-0.0135,-0.0114,-0.0087,-0.0045,-0.0002,-0.0036,-0.0033,-0.0007,0.008,0.0063,0.007,0.0014,0.0015,0.0017,0.0081,0,-0.0339,-0.0359,-0.0347,-0.0358,-0.0363,-0.0335,-0.0324,-0.0296,-0.0269,-0.0243,-0.0187,-0.0165,-0.0135,-0.0125,-0.0074,-0.0025,0.0019,-0.0021,0.0069,0.0072,0.0062,0.008,0.0021,0.0087,0.0089,0.009,0.0091,0,-0.0361,-0.0371,-0.0392,-0.0388,-0.0388,-0.039,-0.0365,-0.0352,-0.03,-0.0278,-0.0228,-0.0191,-0.0124,-0.011,0.0003,-0.0027,0.0026,0.0069,0.0073,0.0072,0.007,0.0087,0.0106,0.0105,0.0104,0.0103,0.0102,0,-0.0387,-0.0399,-0.042,-0.042,-0.0413,-0.0415,-0.0408,-0.0367,-0.0357,-0.0304,-0.0292,-0.0202,-0.0171,-0.008,0.001,0.0006,0.0127,0.0134,0.0175,0.0173,0.0177,0.0172,0.0221,0.0221,0.022,0.022,0.022,0,-0.0408,-0.0425,-0.0441,-0.0454,-0.0478,-0.0455,-0.0466,-0.0441,-0.0408,-0.0393,-0.0319,-0.0287,-0.0163,-0.008,0.0008,0.0113,0.0131,0.0182,0.0196,0.0164,0.0158,0.0182,0.0176,0.0223,0.0222,0.0222,0.0221,0,-0.0432,-0.0442,-0.0471,-0.0485,-0.0495,-0.0515,-0.0522,-0.0522,-0.0486,-0.0465,-0.0453,-0.0349,-0.0238,-0.0115,0.0031,0.0097,0.0203,0.0236,0.0182,0.019,0.0219,0.0212,0.029,0.029,0.029,0.029,0.029,0,-0.0443,-0.0463,-0.0509,-0.0539,-0.0552,-0.058,-0.0596,-0.057,-0.0561,-0.0499,-0.0485,-0.0383,-0.0302,-0.0101,0.0022,0.0191,0.0214,0.026,0.0257,0.0224,0.023,0.0223,0.0216,0.029,0.029,0.029,0.029,0,-0.0465,-0.049,-0.0517,-0.0584,-0.0621,-0.0651,-0.0665,-0.0664,-0.0621,-0.0595,-0.0496,-0.0385,-0.026,-0.01,0.0027,0.0149,0.0226,0.0261,0.0262,0.026,0.0226,0.023,0.0223,0.0291,0.0291,0.0291,0.0291,0,-0.0484,-0.0517,-0.0566,-0.0617,-0.067,-0.0698,-0.0704,-0.0674,-0.0654,-0.0569,-0.0539,-0.0392,-0.03,-0.0122,-0.0003,0.0112,0.0142,0.0174,0.018,0.0181,0.0128,0.0068,0.0105,0,0,0,0,0,-0.0496,-0.0537,-0.0593,-0.0649,-0.0699,-0.0721,-0.0734,-0.0724,-0.0685,-0.0617,-0.0569,-0.0444,-0.0249,-0.016,-0.0045,-0.0019,0.0142,0.0116,0.0177,0.0293,0.0292,0.0248,0,0,0,0,0,0,-0.0508,-0.0565,-0.0594,-0.0658,-0.0696,-0.0741,-0.0747,-0.0723,-0.0667,-0.0612,-0.0499,-0.0428,-0.0234,-0.0311,-0.0045,-0.0011,0.004,0.0214,0.0216,0.0293,0.0292,0.0292,0.0246,0,0,0,0,0]}]]